Location: Marcé
(47.5801°N, 0.3280°W)
Time: 11:50:37
(UTC+01:00)

Vanguard 3 - Pass Details

Date: 06 December 2021
Orbit: 508 x 3260 km, 33.3° (Epoch: 17 January)

Event Time Altitude Azimuth Distance (km) Brightness Sun altitude
Exits shadow 07:11:39 - 259° (W) 6,676 11.3 -13.3°
Reaches altitude 10° 07:14:06 10° 257° (WSW) 6,192 11.1 -12.9°
Maximum altitude 07:31:51 47° 193° (SSW) 3,388 10.3 -10.1°
Drops below altitude 10° 07:44:20 10° 125° (SE) 4,459 12.5 -8.2°
Sets 07:47:24 0° 119° (ESE) 5,129 13.8 -7.7°
